Location: ????? ?????
(44.4839°N, 34.1428°E)
Time: 09:05:04
(UTC+00:00)

Daily predictions for brighter satellites

Satellite Brightness Start Highest point End
(mag) Time Altitude Azimuth Time Altitude Azimuth Time Altitude Azimuth
STARLINK-1126 3.8 17:50:59 10° NW 17:55:09 72° NNE 17:59:18 10° ESE
Meteor 1-19 Rocket 4.4 17:49:40 10° SSW 17:55:20 84° W 18:01:13 10° N
STARLINK-1240 3.8 17:53:07 10° WSW 17:57:16 82° NNW 18:01:25 10° NE
Cosmos 1437 Rocket 3.9 17:54:52 10° SE 17:57:55 24° E 18:01:00 10° NE
Lacrosse 5 1.9 17:53:14 10° NW 17:58:20 87° NE 18:03:23 10° SE
Meteor 1-4 Rocket 2.7 17:55:36 10° SSW 17:59:02 72° W 18:02:31 10° N
Aureole 2 Rocket 3.8 17:57:10 10° SE 17:59:14 16° ESE 18:01:16 10° ENE
STARLINK-1082 3.7 17:55:56 10° NW 18:00:05 77° NNE 18:04:13 10° ESE
COSMOS 2406 3.8 17:54:31 10° NNW 18:00:11 59° WSW 18:05:48 10° S
NOSS 2-2 (E) 4.5 17:58:22 10° SSE 18:01:00 20° ESE 18:03:46 10° ENE
STARLINK-1203 3.9 17:57:30 10° WSW 18:01:42 77° NNW 18:05:55 10° NE
STARLINK-1216 3.9 17:58:05 10° WSW 18:02:14 76° NNW 18:06:23 10° NE
CZ-2C R/B 2.8 17:56:44 10° NNE 18:02:23 88° ESE 18:08:00 10° SSW
Meteor 2-4 Rocket 3.6 17:59:20 10° S 18:04:39 74° E 18:10:01 10° NNE
STARLINK-1100 3.7 18:00:53 10° NW 18:05:02 83° NNE 18:09:12 10° ESE
USA 186 4.2 18:03:29 10° SW 18:05:11 16° W 18:06:58 10° NW
Cosmos 1975 3.6 18:03:13 10° NNW 18:07:11 54° W 18:11:05 10° S
STARLINK-1237 4.0 18:03:05 10° WSW 18:07:13 71° NNW 18:11:22 10° NE
ISS -3.7 18:04:33 10° WNW 18:07:55 75° SSW 18:11:10 11° SE
Intercosmos 24 4.2 18:05:06 10° N 18:08:32 44° E 18:12:15 10° SSE
Cosmos 1674 Rocket 4.5 18:05:53 10° SSE 18:09:41 30° E 18:13:32 10° NNE
STARLINK-1083 3.6 18:05:53 10° WNW 18:10:02 89° NNE 18:14:06 11° SE
Cosmos 2297 4.3 18:06:17 10° S 18:11:23 36° ESE 18:16:32 10° NE
Cosmos 1833 Rocket 2.9 18:06:27 10° NNW 18:12:04 74° WSW 18:17:39 10° SSE
STARLINK-1202 4.1 18:08:06 10° WSW 18:12:13 66° NNW 18:16:21 10° NE
Cosmos 1943 Rocket 3.7 18:09:16 10° SE 18:12:31 16° E 18:15:46 10° ENE
STARLINK-1125 3.6 18:10:52 10° WNW 18:15:02 85° SSW 18:18:53 12° SE
Cosmos 2082 Rocket 2.3 18:12:50 10° NNW 18:18:36 79° ENE 18:24:10 11° SSE
Cosmos 1420 Rocket 4.3 18:14:16 10° SSW 18:19:27 72° WNW 18:24:39 10° NNE
Cosmos 1452 Rocket 3.5 18:14:22 10° SSW 18:19:37 81° ESE 18:24:56 10° NNE
STARLINK-1109 3.6 18:15:51 10° WNW 18:20:00 79° SW 18:23:40 13° SE
Cosmos 332 Rocket 3.8 18:16:45 10° S 18:21:36 65° ESE 18:26:28 10° NNE
STARLINK-1246 4.3 18:18:07 10° WSW 18:22:12 58° NNW 18:26:19 10° NE
IGS 5A 4.2 18:19:02 12° SE 18:22:36 39° ENE 18:26:29 10° N
Landsat 7 4.4 18:18:55 11° SE 18:23:12 44° ENE 18:27:42 10° N
STARLINK-1091 3.7 18:20:49 10° WNW 18:24:57 73° SW 18:28:25 14° SE
NOSS 2-2 (C) 4.0 18:22:24 10° S 18:25:27 27° ESE 18:28:41 10° ENE
STARLINK-1224 4.5 18:23:07 10° WSW 18:27:11 54° NNW 18:31:16 10° NE
Cosmos 2369 Rocket 3.8 18:25:39 12° SE 18:28:08 16° E 18:31:22 10° ENE
ATLAS 2AS CENTAUR R/B 4.5 18:25:53 12° SE 18:29:18 15° ESE 18:33:30 10° ENE
STARLINK-1072 3.7 18:25:49 10° WNW 18:29:57 67° SW 18:33:14 15° SE
Cosmos 1461 2.8 18:26:17 10° SSW 18:30:22 70° ESE 18:34:42 10° NE
ATLAS 3B CENTAUR R/B 4.3 18:18:08 10° SW 18:30:49 29° S 18:36:45 14° SE
Okean 3 4.1 18:28:03 10° SSW 18:32:18 61° W 18:36:35 10° N
NOSS 8 (F) 4.3 18:29:51 10° SW 18:33:09 78° WNW 18:36:12 10° NE
STARLINK-1096 3.8 18:30:49 10° WNW 18:34:54 61° SW 18:38:00 17° SE
SAR-Lupe-2 3.8 18:34:07 10° NNE 18:37:38 50° E 18:40:50 12° S
Meteor 1-13 Rocket 4.3 18:32:11 10° S 18:37:48 89° WNW 18:43:34 10° N
SPOT 5 4.0 18:35:04 14° SE 18:39:00 35° ENE 18:43:51 10° N
Cosmos 2221 Rocket 4.3 18:34:47 10° SSW 18:39:14 57° WNW 18:43:44 10° N
STARLINK-1079 3.9 18:35:48 10° WNW 18:39:52 56° SW 18:42:47 18° SE
STARLINK-1144 4.4 18:38:05 10° NW 18:42:07 47° NNE 18:45:50 12° E
ERS-1 Rocket 3.6 18:39:41 16° SE 18:43:25 43° ENE 18:48:10 10° N
STARLINK-1116 4.0 18:40:48 10° WNW 18:44:50 51° SW 18:47:34 19° SSE
Cosmos 1066 Rocket 4.2 18:40:45 10° S 18:46:01 57° E 18:51:15 10° NNE
STARLINK-1103 4.3 18:43:03 10° NW 18:47:06 50° NNE 18:50:36 13° E
SL-4 R/B 3.5 18:45:21 10° WNW 18:47:30 18° WSW 18:49:32 10° SSW
Nadezhda 4 Rocket 4.1 18:43:57 11° S 18:49:48 58° E 18:55:47 10° NNE
TSX-5 4.4 18:45:02 10° SSW 18:50:51 85° WNW 18:55:17 10° NNE
Cosmos 2278 Rocket 3.9 18:46:02 10° WSW 18:51:14 36° NW 18:56:27 10° NNE
STARLINK-1101 4.2 18:48:01 10° NW 18:52:06 53° NNE 18:55:23 15° ESE
USA 245 2.4 18:50:17 20° SSE 18:52:12 85° WSW 18:54:48 10° NNW
STARLINK-1094 4.3 18:50:49 10° WNW 18:54:45 43° SW 18:57:08 21° SSE
Cosmos 1741 Rocket 4.2 18:50:05 10° NNW 18:55:17 71° WSW 18:59:27 16° S
Resurs 01 Rocket 3.0 18:51:41 10° SSW 18:55:46 35° W 18:59:53 10° NNW
MetOp-B 4.4 18:50:40 11° S 18:55:46 66° WSW 19:01:07 10° NNW
STARLINK-1102 4.1 18:53:00 10° NW 18:57:06 57° NNE 19:00:10 17° ESE
Okean 1 Rocket 3.1 18:53:20 10° N 18:57:48 68° E 19:00:42 21° SSE
Okean 2 Rocket 4.4 18:54:09 10° NNW 18:58:12 37° W 19:02:14 10° SSW
Cosmos 2279 Rocket 4.4 18:52:57 10° NNW 18:59:04 61° W 19:05:09 10° S
STARLINK-1117 4.4 18:55:50 10° WNW 18:59:42 39° SW 19:01:55 21° SSE
Cosmos 1805 3.9 18:56:15 10° N 18:59:58 41° ENE 19:01:50 24° SE
GPS 2-04 Rocket1 4.0 18:59:07 10° SW 19:01:39 19° S 19:01:44 19° S
STARLINK-1111 4.0 18:57:58 10° NW 19:02:05 61° NNE 19:04:56 19° ESE
SL-8 R/B 3.8 18:59:48 10° WNW 19:04:38 79° NNE 19:08:20 17° ESE
Cosmos 1110 Rocket 3.9 19:01:28 10° SSW 19:06:39 82° ESE 19:11:51 10° NNE
STARLINK-1073 3.9 19:02:57 10° NW 19:07:04 65° NNE 19:09:44 21° ESE
Spot 2 Rocket 3.8 19:03:52 14° S 19:08:05 61° WSW 19:13:06 10° NNW
Terra 2.4 19:05:29 22° SE 19:08:10 44° ENE 19:12:41 10° N
SPOT 1/Viking Rocket 3.5 19:04:39 18° SSE 19:08:29 84° WSW 19:13:41 10° NNW
BREEZE-M DEB (TANK) 3.8 19:08:16 19° S 19:10:18 36° SE 19:17:36 10° ENE
SL-4 R/B 3.0 19:07:05 10° SSW 19:11:18 33° SE 19:15:38 10° ENE
STARLINK-1121 3.8 19:07:55 10° NW 19:12:04 70° NNE 19:14:30 23° ESE
CARTOSAT-1 3.5 19:10:42 25° SSE 19:13:09 73° ENE 19:17:29 10° N
Cosmos 1842 4.2 19:13:36 26° ESE 19:14:35 30° E 19:18:01 10° NNE
STARLINK-1106 3.7 19:12:55 10° NW 19:17:04 75° NNE 19:19:18 26° ESE
Abrixas rocket 1.9 19:16:56 10° WNW 19:19:51 66° SSW 19:20:22 52° SSE
STARLINK-1112 3.6 19:17:51 10° NW 19:22:01 81° NNE 19:24:04 29° ESE
Cosmos 1331 Rocket 4.0 19:18:21 10° SSW 19:23:30 80° WNW 19:28:44 10° NNE
STARLINK-1128 3.5 19:22:50 10° NW 19:27:00 87° NE 19:28:50 32° ESE
COSMOS 2455 4.3 19:26:39 17° ESE 19:27:04 17° ESE 19:30:48 10° ENE
STARLINK-1113 3.5 19:27:49 10° WNW 19:31:59 87° SSW 19:33:38 36° SE
Aureole 2 Rocket 4.5 19:30:11 10° WSW 19:32:44 23° WNW 19:35:13 10° N
Cosmos 1733 3.2 19:29:36 10° N 19:33:25 67° E 19:34:33 41° SSE
Cosmos 1302 Rocket 4.0 19:30:04 21° S 19:33:33 67° ESE 19:38:49 10° NNE
NOSS 2-2 (D) 3.8 19:30:16 10° SW 19:33:46 57° NW 19:37:40 10° NNE
Cosmos 1092 Rocket 3.9 19:30:54 21° S 19:35:12 81° E 19:41:23 10° N
STARLINK-1119 3.5 19:32:49 10° WNW 19:36:59 81° SW 19:38:26 39° SE
Cosmos 1378 3.5 19:35:06 24° SSW 19:37:11 60° W 19:40:52 10° N
CENTAUR R/B 3.6 19:29:35 10° NNW 19:37:26 57° NE 19:43:59 19° ESE
Cosmos 1271 Rocket 3.9 19:39:15 26° E 19:39:26 26° E 19:42:44 10° NE
ATLAS 3B R/B 4.1 19:34:18 10° NNW 19:40:14 31° NE 19:46:19 10° E
Cosmos 1544 Rocket 4.3 19:36:11 10° N 19:40:16 39° ENE 19:41:31 31° ESE
Lacrosse 5 3.8 19:37:24 10° W 19:40:41 18° WSW 19:42:55 13° SSW
Cosmos 1242 Rocket 3.2 19:41:26 38° ESE 19:41:43 38° E 19:45:10 10° NNE
STARLINK-1114 3.5 19:37:47 10° WNW 19:41:56 75° SW 19:43:12 43° SE
NOSS 3-2 (C) 4.3 19:35:00 10° NNW 19:42:27 64° NE 19:48:12 22° SE
ISS -1.1 19:43:16 10° WSW 19:44:06 11° SW 19:44:06 11° SW
MTI 3.5 19:42:57 10° NNE 19:46:05 76° ESE 19:46:21 69° SSE
STARLINK-60 4.1 19:47:58 31° ENE 19:47:58 31° ENE 19:49:49 10° ENE
STARLINK-1130 (DARKSAT) 3.6 19:42:47 10° WNW 19:46:55 69° SW 19:47:59 46° SSE
Cosmos 1627 Rocket 4.5 19:45:25 25° S 19:49:19 81° E 19:55:45 10° N
Cosmos 1707 3.9 19:49:26 27° E 19:49:31 27° E 19:52:49 10° NNE
Cosmos 2195 Rocket 4.5 19:46:13 23° S 19:50:24 90° E 19:56:43 10° N
NOSS 3-4 (A) 3.8 19:49:11 32° SSE 19:51:01 40° ESE 19:56:44 10° NE
NOSS 3-4 (C) 3.8 19:49:20 32° SSE 19:51:07 39° ESE 19:56:50 10° NE
STARLINK-1084 3.6 19:47:46 10° WNW 19:51:53 63° SW 19:52:46 48° SSE
EXPRESS MD2 4.5 19:50:04 10° W 19:53:39 57° N 20:00:50 10° ENE
SL-27 R/B 2.3 19:51:51 10° NNW 19:55:27 78° ENE 19:55:55 64° SE
Cosmos 1943 Rocket 2.3 19:50:21 12° SSW 19:55:31 76° WNW 20:01:09 10° NNE
Cosmos 1428 Rocket 4.5 19:52:04 28° S 19:55:38 79° E 20:01:56 10° N
Cosmos 1766 4.0 19:52:07 10° NNW 19:55:58 49° W 19:57:24 32° SSW
STARLINK-1098 3.7 19:52:46 10° WNW 19:56:51 58° SW 19:57:33 50° S
Cosmos 1992 Rocket 4.4 19:56:02 36° SE 19:57:15 42° ESE 20:02:09 10° NE
Cosmos 1726 4.0 19:55:14 10° NNE 19:57:57 19° ENE 19:58:20 19° E
STARLINK-1123 3.8 19:57:45 10° WNW 20:01:48 53° SW 20:02:19 49° S
Cosmos 2082 Rocket 4.4 19:58:40 10° WNW 20:01:55 16° W 20:05:10 10° SW
COSMOS 2487 4.5 20:00:33 10° NNE 20:02:57 17° ENE 20:03:33 17° ENE
BREEZE-M DEB 3.4 20:01:07 10° W 20:03:49 67° NNW 20:11:15 10° ENE
SeaSat 1 3.0 19:59:39 10° NE 20:04:15 38° ESE 20:04:49 37° SE
STARLINK-1097 3.9 20:02:47 10° WNW 20:06:47 49° SW 20:07:07 47° SSW
Cosmos 546 4.5 20:05:21 10° WNW 20:09:11 69° SSW 20:09:27 66° S
EO 1 Del DPAF 3.7 20:05:56 10° NNE 20:09:28 43° E 20:09:28 43° E
Cosmos 1975 Rocket 3.6 20:07:29 27° SW 20:09:38 54° WNW 20:13:58 10° N
S3M 4.3 20:04:57 10° N 20:11:00 52° ENE 20:13:29 34° SE
Cosmos 2369 Rocket 2.2 20:07:22 20° SSW 20:11:26 79° WNW 20:17:07 10° NNE
STARLINK-1099 4.0 20:07:46 10° WNW 20:11:44 44° SW 20:11:54 44° SW
Cosmos 292 Rocket 3.7 20:09:53 36° SSW 20:11:53 90° WNW 20:16:47 10° NNE
Aureole 3 Rocket 4.4 20:06:22 10° N 20:12:46 83° E 20:17:11 31° SSE
STARLINK-1104 4.2 20:12:47 10° WNW 20:16:39 41° SW 20:16:39 41° SW
SPOT 5 4.3 20:14:18 21° SW 20:17:01 33° W 20:21:51 10° NNW
STARLINK-1212 4.3 20:15:08 10° NW 20:18:01 33° NNE 20:18:39 30° NE
STARLINK-1105 4.3 20:15:37 10° NW 20:18:29 33° NNE 20:19:05 30° NE
ATLAS 2AS CENTAUR R/B 3.0 20:13:12 20° SSW 20:19:01 70° ESE 20:26:56 10° NE
STARLINK-1247 4.3 20:16:29 10° NW 20:19:23 34° NNE 20:19:59 31° NE
Cosmos 2026 Rocket 4.3 20:15:52 24° SSW 20:19:48 65° W 20:26:09 10° N
STARLINK-1227 4.3 20:16:58 10° NW 20:19:52 34° NNE 20:20:25 31° NE
STARLINK-1226 4.3 20:17:49 10° NW 20:20:44 34° NNE 20:21:16 32° NE
STARLINK-1215 4.2 20:18:43 10° NW 20:21:38 35° NNE 20:22:09 32° NE
STARLINK-1144 4.4 20:17:48 10° WNW 20:21:27 37° SW 20:21:27 37° SW
ATLAS CENTAUR R/B 1.8 20:23:28 46° ESE 20:23:28 46° ESE 20:27:08 10° NE
STARLINK-1217 4.2 20:20:32 10° NW 20:23:27 36° NNE 20:23:54 34° NE
NOSS 3-2 (A) 4.3 20:16:20 10° NW 20:23:51 60° WSW 20:27:48 33° S
STARLINK-1229 4.1 20:21:26 10° NW 20:24:22 36° NNE 20:24:46 34° NE
Cosmos 1553 Rocket 3.9 20:18:16 10° N 20:24:35 89° E 20:27:04 39° S
Thor Agena Rocket 3.5 20:19:38 10° NNE 20:24:57 74° ESE 20:26:36 45° S
STARLINK-1270 4.1 20:22:20 10° NW 20:25:16 37° NNE 20:25:38 35° NE
Cosmos 1656 Rocket 3.6 20:23:31 41° S 20:25:28 70° ESE 20:31:02 10° NNE
Cosmos 1340 Rocket 3.6 20:22:41 10° N 20:26:31 39° ENE 20:26:55 37° E
Cosmos 1025 Rocket 2.9 20:26:06 63° SSE 20:26:43 78° E 20:31:02 10° N
STARLINK-1189 4.1 20:24:07 10° NW 20:27:04 38° NNE 20:27:22 36° NE
STARLINK-1188 4.1 20:25:01 10° NW 20:28:00 38° NNE 20:28:15 37° NE
STARLINK-1187 3.9 20:26:05 10° NW 20:29:03 42° NNE 20:29:05 42° NNE
Cosmos 2292 Rocket 4.3 20:29:59 31° ENE 20:29:59 31° ENE 20:32:26 10° NNE
STARLINK-1191 4.0 20:27:28 10° NW 20:30:25 39° NNE 20:30:32 39° NNE
STARLINK-1221 4.0 20:28:24 10° NW 20:31:22 40° NNE 20:31:27 40° NNE
APEX 4.4 20:27:35 20° SW 20:32:10 74° WNW 20:37:36 10° NNE
STARLINK-1222 4.0 20:29:15 10° NW 20:32:13 40° NNE 20:32:16 40° NNE
Cosmos 1655 Rocket 4.0 20:30:06 40° SSE 20:32:26 73° E 20:38:41 10° NNE
STARLINK-1214 4.0 20:30:09 10° NW 20:33:07 41° NNE 20:33:08 41° NNE
Cosmos 1953 2.4 20:30:52 10° N 20:34:48 58° E 20:35:00 57° E
USA 238 DEB 4.3 20:28:36 10° NW 20:35:32 50° WSW 20:38:26 34° S
USA 238 4.3 20:28:42 10° NW 20:35:39 50° WSW 20:38:33 34° S
Cosmos 1470 3.0 20:32:24 10° NNW 20:36:12 55° W 20:36:30 53° WSW
Cosmos 968 Rocket 3.5 20:31:09 10° NNW 20:36:16 69° WSW 20:37:31 49° S
STARLINK-1228 3.5 20:34:12 10° NW 20:37:40 61° NNE 20:37:42 61° NNE
STARLINK-1235 3.7 20:37:47 10° NW 20:40:37 53° N 20:40:37 53° N
Cosmos 1455 Rocket 4.2 20:37:21 10° NNW 20:41:13 32° W 20:42:18 28° WSW
Terra 3.6 20:44:22 18° WSW 20:46:06 22° W 20:49:47 10° NW
SL-4 R/B 3.9 20:50:27 14° N 20:50:27 14° N 20:50:53 10° N
Cosmos 1758 3.9 20:45:23 10° NNW 20:49:17 46° W 20:49:40 45° WSW
In-Cosmos 22 4.0 20:48:30 53° SSE 20:49:40 71° E 20:54:56 10° NNE
SL-4 R/B 2.7 20:46:04 10° WSW 20:50:52 66° NNW 20:55:41 10° ENE
Cosmos 2266 Rocket 3.9 20:49:10 45° SSE 20:51:05 74° E 20:57:07 10° NNE
Cosmos 2228 3.9 20:47:27 10° N 20:51:22 35° ENE 20:51:46 34° E
Cosmos 1503 Rocket 4.1 20:50:49 10° NNW 20:56:05 66° WSW 20:57:15 51° SSW
STARLINK-1234 4.2 20:55:32 10° NW 20:57:43 39° NW 20:57:43 39° NW
STARLINK-1209 4.5 21:01:29 10° WNW 21:03:26 33° WNW 21:03:26 33° WNW
SJ 16-02 4.0 21:05:35 10° NNE 21:07:08 12° NE 21:08:40 10° ENE
Cosmos 1536 Rocket 4.4 21:08:36 36° WSW 21:09:30 41° WNW 21:13:39 10° N
USA 215 3.5 21:05:39 18° ESE 21:10:43 70° NE 21:17:14 10° NW
COSMOS 2455 2.8 21:09:45 38° SW 21:12:14 82° WNW 21:18:18 10° NNE
Cosmos 883 Rocket 4.4 21:06:22 10° N 21:12:31 88° W 21:14:21 49° S
Cosmos 1674 2.9 21:13:31 65° NE 21:13:31 65° NE 21:16:54 10° NNE
Helios 1B rocket 4.4 21:11:13 10° NE 21:13:50 18° E 21:13:50 18° E
Spot 4 4.4 21:14:22 41° SW 21:15:06 44° W 21:19:46 10° NNW
Cosmos 1354 Rocket 4.4 21:10:12 10° NNW 21:15:19 50° WSW 21:16:12 45° SW
BREEZE-M R/B 3.9 21:15:12 38° SSW 21:17:30 54° SSE 21:21:46 10° ENE
STARLINK-1206 4.5 21:17:01 10° NW 21:21:03 48° NNE 21:22:46 29° E
Cosmos 2297 Rocket 3.8 21:16:24 10° N 21:21:14 28° NE 21:25:14 13° ESE
Helios 1A 3.0 21:24:59 67° E 21:25:11 69° ENE 21:29:22 10° N
Timation 2 Rocket 4.1 21:19:20 10° NNW 21:25:39 70° ENE 21:27:58 39° SE
STARLINK-1205 4.4 21:21:58 10° NW 21:26:01 51° NNE 21:27:32 33° E
CENTAUR R/B 3.7 21:20:31 10° NW 21:28:15 46° WSW 21:31:08 35° SSW
Lacrosse 4 Rocket 4.4 21:28:30 10° NNE 21:30:07 12° NE 21:31:42 10° ENE
ALOS 2 2.8 21:30:24 57° WSW 21:30:33 57° W 21:34:54 10° NNW
STARLINK-1218 4.2 21:26:57 10° NW 21:31:02 54° NNE 21:32:20 37° E
ATLAS 3B R/B 2.6 21:24:43 10° NW 21:31:32 75° WSW 21:33:57 44° SSE
Meteor 2-5 Rocket 3.6 21:31:45 55° SSE 21:32:55 74° E 21:38:33 10° NNE
Cosmos 1726 3.6 21:29:56 10° NNW 21:32:50 28° W 21:32:50 28° W
Cosmos 2058 Rocket 3.4 21:29:53 10° N 21:34:15 53° ENE 21:34:42 51° ESE
STARLINK-1369 4.4 21:37:19 37° ENE 21:37:19 37° ENE 21:39:45 10° ENE
STARLINK-1254 4.1 21:31:55 10° NW 21:36:01 58° NNE 21:37:06 42° E
Cosmos 1867 4.2 21:32:49 10° NW 21:37:51 39° WSW 21:38:06 38° WSW
COSMOS 2487 4.2 21:35:01 10° NW 21:37:03 25° WNW 21:37:03 25° WNW
Meteor 2-21 4.5 21:36:52 48° SSE 21:38:35 71° E 21:44:45 10° NNE
STARLINK-1372 4.3 21:40:38 41° ENE 21:40:38 41° ENE 21:43:14 10° ENE
STARLINK-1231 4.0 21:36:53 10° NW 21:41:00 62° NNE 21:41:52 48° E
SeaSat 1 3.8 21:37:16 10° N 21:41:41 34° NW 21:44:35 18° WSW
NOSS 3-4 (A) 4.4 21:36:32 12° WSW 21:41:49 43° NW 21:47:55 10° NNE
NOSS 3-4 (C) 4.4 21:36:40 12° WSW 21:41:55 44° NW 21:48:02 10° NNE
Cosmos 2098 Rocket 4.4 21:39:41 40° SSW 21:42:32 72° W 21:50:03 10° N
STARLINK-1378 4.2 21:43:59 45° ENE 21:43:59 45° ENE 21:46:43 10° ENE
SL-14 R/B 3.6 21:43:45 54° ENE 21:43:45 54° ENE 21:47:11 10° NNE
Cosmos 1606 Rocket 3.7 21:40:09 10° NNW 21:44:25 59° W 21:44:29 59° W
STARLINK-1232 3.9 21:41:52 10° NW 21:46:01 66° NNE 21:46:40 55° E
STARLINK-1379 4.0 21:47:21 50° ENE 21:47:21 50° ENE 21:50:14 10° ENE
FALCON 9 DEB 4.1 21:46:54 45° NNW 21:46:56 45° NNW 21:50:16 10° NE
STARLINK-1329 4.0 21:48:42 52° ENE 21:48:42 52° ENE 21:51:40 10° ENE
Cosmos 2315 Rocket 4.3 21:44:20 10° NNW 21:50:23 56° W 21:52:08 42° SW
STARLINK-1208 3.8 21:46:49 10° NW 21:50:58 71° NNE 21:51:25 64° ENE
STARLINK-1362 3.8 21:52:07 57° NE 21:52:07 57° NE 21:55:14 10° NE
Cosmos 1697 Rocket 4.3 21:51:04 19° ESE 21:52:04 20° E 21:56:03 10° NE
RESURS DK-1 2.7 21:53:57 54° W 21:54:17 56° WNW 21:58:23 10° NNE
STARLINK-1373 3.7 21:55:32 63° NE 21:55:32 63° NE 21:58:48 10° NE
BREEZE-M DEB (TANK) 3.6 21:49:21 10° WNW 21:55:30 41° N 21:58:02 10° ENE
STARLINK-1271 3.6 21:51:50 10° NW 21:55:59 76° NNE 21:56:14 73° ENE
STARLINK-1365 3.6 21:56:33 67° NNE 21:56:33 67° NNE 21:59:58 10° NE
BREEZE-M DEB (TANK) 3.1 21:53:00 10° WNW 21:56:28 85° SSW 22:02:55 10° ESE
Nadezhda 2 Rocket 4.4 21:55:00 48° SSW 21:56:48 77° W 22:02:58 10° N
Cosmos 2084 3.7 21:57:06 55° W 21:57:49 66° NW 22:02:17 10° NNE
Cosmos 2227 Rocket 3.1 21:52:56 10° NNW 21:58:22 44° ENE 22:01:43 22° ESE
STARLINK-1390 3.6 21:59:00 67° NNE 21:59:00 67° NNE 22:02:24 10° NE
Okean 1-7 Rocket 3.5 22:00:13 73° SW 22:00:34 79° W 22:05:06 10° N
STARLINK-1154 3.5 21:56:48 10° NW 22:00:58 82° NNE 22:01:00 82° NE
Cosmos 1626 2.3 22:01:28 68° NNW 22:01:28 68° NNW 22:04:48 10° N
ATLAS CENTAUR R/B 3.4 21:59:35 14° W 22:02:12 24° NW 22:05:34 10° NNE
CZ-4 R/B 3.7 21:59:19 10° NNE 22:04:05 72° ESE 22:04:39 64° SSE
STARLINK-1197 3.5 22:01:45 10° NW 22:05:46 83° NW 22:05:46 83° NW
Meteor 2-21 Rocket 4.4 22:05:57 49° S 22:07:48 89° WNW 22:14:02 10° N
Meteor 2-14 Rocket 4.5 22:08:44 46° SSW 22:10:36 73° W 22:16:45 10° N
Cosmos 1602 Rocket 4.2 22:10:15 41° ESE 22:10:36 42° E 22:14:42 10° NNE
ATLAS 2AS CENTAUR R/B 4.2 22:03:16 10° WSW 22:10:37 38° NW 22:17:54 10° NNE
STARLINK-1198 3.6 22:06:44 10° WNW 22:10:32 74° WNW 22:10:32 74° WNW
STARLINK-1199 3.7 22:11:44 10° WNW 22:15:20 65° WNW 22:15:20 65° WNW
FALCON 9 R/B 3.2 22:19:35 39° S 22:19:43 39° SSE 22:32:27 10° ESE
Nadezhda 1 Rocket 4.0 22:14:17 10° N 22:20:32 76° E 22:22:56 40° SSE
STARLINK-1210 3.9 22:16:43 10° WNW 22:20:07 56° W 22:20:07 56° W
STARLINK-1219 4.1 22:21:41 10° WNW 22:24:52 49° W 22:24:52 49° W
Cosmos 1763 Rocket 4.0 22:25:32 39° SE 22:26:29 44° ESE 22:31:18 10° NNE
Cosmos 1356 Rocket 3.3 22:22:56 10° NNW 22:27:09 85° W 22:27:23 79° SSW
STARLINK-1211 4.3 22:26:42 10° WNW 22:29:40 43° W 22:29:40 43° W
SL-4 R/B 4.0 22:26:44 10° WNW 22:31:13 35° N 22:35:37 10° ENE
STARLINK-1320 4.4 22:31:42 33° NNW 22:31:54 33° NNW 22:34:47 10° NE
STARLINK-1322 4.4 22:32:00 33° NNW 22:32:12 33° NNW 22:35:06 10° NE
STARLINK-1324 4.4 22:32:21 33° NNW 22:32:34 33° NNW 22:35:28 10° NE
Cosmos 921 Rocket 3.9 22:31:52 35° W 22:32:35 38° WNW 22:36:40 10° N
STARLINK-1294 4.4 22:32:38 33° NW 22:32:52 33° NNW 22:35:47 10° NE
STARLINK-1261 4.4 22:32:58 32° NW 22:33:12 33° NNW 22:36:06 10° NE
STARLINK-1325 4.4 22:33:19 32° NW 22:33:34 33° NNW 22:36:27 10° NE
STARLINK-1338 4.3 22:32:46 36° WNW 22:33:45 45° NNW 22:37:25 10° NE
STARLINK-1333 4.4 22:33:40 32° NW 22:33:57 33° NNW 22:36:49 10° NE
Cosmos 1300 3.6 22:30:23 10° NNW 22:33:33 38° WNW 22:33:33 38° WNW
STARLINK-1334 4.4 22:33:58 32° NW 22:34:15 32° NNW 22:37:08 10° NE
Meteor 1-24 Rocket 4.3 22:33:05 35° WSW 22:34:36 44° WNW 22:39:51 10° N
STARLINK-1326 4.4 22:34:18 32° NW 22:34:37 32° NNW 22:37:29 10° NE
STARLINK-1323 4.4 22:34:36 31° NW 22:34:55 32° NNW 22:37:47 10° NE
STARLINK-1349 4.4 22:34:57 31° NW 22:35:16 32° NNW 22:38:09 10° NE
STARLINK-1336 4.5 22:35:16 31° NW 22:35:37 32° NNW 22:38:29 10° NE
STARLINK-1245 4.5 22:31:41 10° WNW 22:34:26 38° W 22:34:26 38° W
STARLINK-1331 4.5 22:35:35 31° NW 22:35:57 32° NNW 22:38:49 10° NE
STARLINK-1344 4.5 22:35:54 31° NW 22:36:17 32° NNW 22:39:08 10° NE
STARLINK-1343 4.5 22:36:14 30° NW 22:36:37 32° NNW 22:39:29 10° NE
CZ-4C R/B 2.2 22:36:20 47° SSE 22:37:15 54° ESE 22:42:52 10° NE
STARLINK-1328 4.5 22:36:54 30° NW 22:37:19 31° NNW 22:40:10 10° NE
Cosmos 1437 4.4 22:40:11 26° NW 22:40:11 26° NW 22:42:09 10° N
STARLINK-1371 4.5 22:39:10 31° WNW 22:40:24 42° NNW 22:44:00 10° NE
STARLINK-1143 4.5 22:38:55 10° NW 22:42:58 50° NNE 22:47:00 10° ESE
Resurs 1-4 Rocket 3.3 22:39:11 10° NNE 22:43:58 33° E 22:46:05 25° SE
Cosmos 1703 4.4 22:43:53 31° ESE 22:44:32 33° E 22:48:06 10° NNE
Meteor 2-1 Rocket 4.1 22:39:44 10° N 22:45:18 89° WSW 22:47:12 43° S
Cosmos 2369 4.1 22:43:44 38° SSE 22:45:23 50° ESE 22:50:50 10° NE
SJ 16-02 1.2 22:41:57 10° NNW 22:46:24 89° WSW 22:47:11 60° SSE
Cosmos 1980 Rocket 3.4 22:45:27 24° SE 22:47:23 30° ESE 22:52:13 10° NE
STARLINK-1241 4.4 22:43:56 10° NW 22:48:00 53° NNE 22:52:04 10° ESE
STARLINK-43 4.3 22:50:02 36° ESE 22:50:02 36° ESE 22:52:44 10° ENE
Helios 1B rocket 3.2 22:45:41 10° N 22:49:34 40° WNW 22:50:09 37° W
Cosmos 1758 Rocket 4.0 22:49:14 44° SE 22:50:09 53° E 22:54:26 10° NNE
MOZ.5/SAFIR/RUBIN 5/SL-8 4.4 22:48:36 30° SE 22:50:38 52° ENE 22:55:09 10° N
STARLINK-1239 4.2 22:48:53 10° NW 22:52:59 56° NNE 22:57:04 10° ESE
GP-B 4.5 22:49:03 10° NNE 22:53:05 32° E 22:54:56 23° SE
USA 215 3.7 22:52:57 37° SSW 22:53:58 39° SW 23:00:03 10° WNW
NOSS 7 (E) 4.5 22:55:46 70° E 22:55:46 70° E 22:58:40 10° NE
CZ-2D R/B 2.9 22:52:46 10° NNE 22:57:43 42° E 22:59:52 28° SSE
Cosmos 1745 Rocket 4.2 22:55:32 37° SW 22:57:48 58° WNW 23:03:51 10° N
STARLINK-1240 4.1 22:53:51 10° NW 22:57:58 60° NNE 23:02:03 10° ESE
GEOS 3 Rocket 4.1 22:52:55 10° SE 22:58:01 60° NE 23:03:13 10° NNW
Cosmos 2219 3.6 22:55:51 10° NW 23:01:12 45° WSW 23:02:17 40° SW
STARLINK-1216 4.0 22:58:48 10° NW 23:02:57 65° NNE 23:07:03 10° ESE
STARLINK-1203 4.0 22:58:54 10° NW 23:03:05 65° NNE 23:07:16 10° ESE
Cosmos 2297 Rocket 2.4 23:00:05 10° NW 23:05:33 51° WSW 23:07:00 41° SSW
Cosmos 468 Rocket 4.0 23:05:31 43° SW 23:07:07 69° WNW 23:12:15 10° NNE
Cosmos 1953 Rocket 4.3 23:06:09 32° SE 23:07:40 45° E 23:11:54 10° NNE
STARLINK-1237 3.9 23:03:47 10° NW 23:07:56 69° NNE 23:12:04 10° ESE
Cosmos 2263 Rocket 4.3 23:04:56 10° N 23:09:33 25° NE 23:14:08 10° ESE
Lacrosse 4 Rocket 1.6 23:05:20 10° NNW 23:09:39 72° ENE 23:11:40 30° SE
SAR-Lupe-3 4.3 23:08:09 10° NNE 23:11:44 82° WNW 23:11:59 74° SW
Cosmos 1455 2.0 23:08:50 10° NNW 23:12:35 75° W 23:12:54 68° SW
STARLINK-1202 3.7 23:08:46 10° NW 23:12:55 74° NNE 23:17:04 10° ESE
Meteor 2-10 Rocket 3.4 23:07:47 10° NNW 23:12:58 71° W 23:14:39 42° SSW
Meteor 1-29 4.4 23:10:51 10° NNW 23:13:43 26° WNW 23:13:48 26° WNW
Cosmos 1937 Rocket 3.4 23:09:50 10° NNW 23:15:07 84° WSW 23:17:40 32° SSE
Cosmos 2082 3.6 23:09:53 10° NNW 23:15:34 83° WSW 23:18:48 27° SSE
Cosmos 1898 Rocket 3.6 23:10:35 10° NNW 23:15:51 60° WSW 23:17:36 39° SSW
Cosmos 540 Rocket 3.7 23:14:56 37° S 23:16:51 62° ESE 23:21:54 10° NNE
ATLAS 3B R/B 4.4 23:17:45 10° WNW 23:21:10 14° WSW 23:21:10 14° WSW
STARLINK-55 4.0 23:22:37 33° ESE 23:22:37 33° ESE 23:25:04 10° ENE
Cosmos 2181 Rocket 4.1 23:15:38 10° N 23:22:07 87° E 23:26:09 25° S
STARLINK-1246 3.6 23:18:44 10° NW 23:22:54 86° NNE 23:27:03 10° ESE
Cosmos 2322 Rocket 4.5 23:20:19 10° SE 23:23:04 14° E 23:25:49 10° ENE
SL-16 R/B 2.5 23:19:18 23° SSE 23:23:22 88° ENE 23:29:35 10° NNW
STARLINK-41 4.3 23:24:14 27° ESE 23:24:14 27° ESE 23:26:27 10° ENE
Cosmos 2278 3.8 23:21:32 35° S 23:23:58 71° ESE 23:29:37 10° NNE
OE (NEXTSAT) 4.1 23:23:22 54° W 23:24:04 81° SSW 23:27:33 10° ESE
Meteor 1-21 Rocket 4.5 23:22:26 34° SW 23:24:41 57° WNW 23:30:22 10° N
CZ-4C R/B 3.5 23:24:34 42° S 23:26:01 79° WSW 23:30:27 10° NNW
CZ-4B R/B 4.0 23:21:15 10° NNE 23:26:24 56° E 23:29:07 27° SSE
STARLINK-1224 3.5 23:23:42 10° WNW 23:27:52 88° SSW 23:32:01 10° SE
Cosmos-2242 2.9 23:27:00 10° NNW 23:31:15 69° W 23:32:30 43° SSW
ATLAS CENTAUR R/B 2.3 23:29:03 10° WNW 23:32:04 46° SW 23:38:44 10° SSE
NPP 3.7 23:26:47 10° NNE 23:32:12 74° ESE 23:34:57 30° S
STARLINK-1225 3.5 23:28:42 10° WNW 23:32:52 82° SW 23:37:00 10° SE
STARLINK-28 3.3 23:33:02 49° SE 23:33:02 49° SE 23:36:03 10° ENE
Cosmos 2221 4.4 23:29:50 10° NNE 23:33:34 27° ENE 23:37:18 10° SE
Cosmos 1697 Rocket 2.9 23:32:47 31° SW 23:35:28 64° WNW 23:41:08 10° NNE
Cosmos 1814 Rocket 4.0 23:33:35 34° SSW 23:36:02 83° ESE 23:41:23 10° NNE
Cosmos 2084 Rocket 4.3 23:31:50 10° NNW 23:36:13 53° NE 23:40:38 10° SE
Cosmos 1570 Rocket 4.1 23:35:09 34° SW 23:37:30 73° WNW 23:42:48 10° NNE
STARLINK-1230 3.4 23:33:40 10° WNW 23:37:49 76° SW 23:41:57 10° SE
BREEZE-M R/B 3.8 23:35:28 10° W 23:40:22 42° NNW 23:43:13 10° ENE
STARLINK-1283 4.1 23:40:41 36° SSE 23:41:25 41° SE 23:45:07 10° ENE
STARLINK-1317 4.1 23:40:58 34° SSE 23:41:25 36° SE 23:44:50 10° ENE
Cosmos 2298 Rocket 4.4 23:36:16 10° NNW 23:41:33 63° ENE 23:46:48 10° SSE
Cosmos 2227 Rocket 3.1 23:37:20 10° NW 23:42:13 30° WSW 23:43:30 27° SW
STARLINK-1243 3.5 23:38:41 10° WNW 23:42:48 70° SW 23:46:55 10° SE
Cosmos 372 Rocket 4.0 23:38:32 10° NNW 23:43:41 79° ENE 23:48:30 12° SSE
Cosmos 1825 Rocket 4.0 23:44:53 33° SW 23:46:15 45° WNW 23:50:26 10° N
STARLINK-1236 3.5 23:43:39 10° WNW 23:47:46 64° SW 23:51:51 10° SE
Alouette 2 Rocket 4.3 23:44:57 10° NNW 23:49:40 36° W 23:50:42 31° WSW
Cosmos 2208 Rocket 4.1 23:47:08 30° SW 23:49:42 69° WNW 23:55:03 10° NNE
STARLINK-1311 3.2 23:50:23 43° SE 23:50:28 43° SE 23:53:18 10° ENE
STARLINK-33 2.9 23:50:57 54° SSW 23:51:27 65° SE 23:54:38 10° ENE
SL-16 R/B 3.6 23:50:09 13° SSE 23:54:26 31° ESE 23:59:22 10° NE
STARLINK 1040 3.5 23:55:45 33° WNW 23:56:18 38° NNW 23:58:45 10° NE
